Weather History for Cordova, AK

Change the Weather History Date:

Friday, November 16, 2012

  Actual Average Record
Temperature  
Mean Temperature 28 °F -  
Max Temperature 33 °F 34 °F 46 °F (2007)
Min Temperature 24 °F 20 °F -10 °F (1985)
Degree Days  
Heating Degree Days 36    
Moisture  
Dew Point 23 °F    
Average Humidity 79    
Maximum Humidity 96    
Minimum Humidity 43    
Precipitation  
Precipitation 0.03 in - - ()
Snow  
Snow 0.00 in - - ()
Snow Depth 1.00 in    
Sea Level Pressure  
Sea Level Pressure 29.38 in    
Wind  
Wind Speed 2 mph (NE)    
Max Wind Speed 13 mph    
Max Gust Speed 21 mph    
Visibility 8 miles    
Events Fog , Snow    
Averages and records for this station are not official NWS values.
T = Trace of Precipitation, MM = Missing Value Source: NWS Daily Summary

Daily Weather History Graph

Daily Weather History Graph

Search for Another Location

Airport:

Trip Planner

Search our weather history database for the weather conditions in past years. The results will help you decide how hot, cold, wet, or windy it might be!

Date:

Astronomy

Nov. 16, 2012 Rise Set
Actual Time 8:47 AM AKST 4:05 PM AKST
Civil Twilight 7:56 AM AKST 4:56 PM AKST
Nautical Twilight 7:03 AM AKST 5:49 PM AKST
Astronomical Twilight 6:13 AM AKST 6:38 PM AKST
Moon 12:04 PM AKST (11/16) 7:04 PM AKST (11/16)
Length of Visible Light 8h 59m
Length of Day
7h 18m
Waxing Crescent, 13% of the Moon is Illuminated
Nov 16
Waxing Crescent
Nov 20
First Quarter
Nov 28
Full
Dec 6
Last Quarter
Dec 12
New

Hourly Weather History & Observations

Time (AKST) Temp. Windchill Dew Point Humidity Pressure Visibility Wind Dir Wind Speed Gust Speed Precip Events Conditions
12:53 AM 30.0 °F - 28.9 °F 96% 29.47 in 10.0 mi Calm Calm - N/A   Scattered Clouds
1:53 AM 30.0 °F - 28.0 °F 92% 29.45 in 10.0 mi Calm Calm - N/A   Partly Cloudy
2:53 AM 28.0 °F 24.2 °F 27.0 °F 96% 29.44 in 10.0 mi ESE 3.5 mph - N/A   Partly Cloudy
3:53 AM 28.0 °F - 26.1 °F 92% 29.43 in 10.0 mi Calm Calm - N/A   Clear
4:53 AM 27.0 °F - 25.0 °F 92% 29.42 in 10.0 mi Calm Calm - N/A   Clear
5:53 AM 26.1 °F - 25.0 °F 96% 29.41 in 10.0 mi Calm Calm - N/A   Clear
6:53 AM 25.0 °F - 23.0 °F 92% 29.39 in 10.0 mi Calm Calm - N/A   Clear
7:53 AM 24.1 °F - 21.9 °F 91% 29.38 in 10.0 mi Calm Calm - N/A   Partly Cloudy
8:53 AM 26.1 °F - 23.0 °F 88% 29.37 in 10.0 mi Calm Calm - N/A   Scattered Clouds
9:53 AM 24.1 °F - 21.0 °F 88% 29.36 in 10.0 mi Calm Calm - N/A   Scattered Clouds
10:53 AM 28.0 °F 24.2 °F 24.1 °F 85% 29.35 in 10.0 mi ESE 3.5 mph - N/A   Scattered Clouds
11:53 AM 30.9 °F - 25.0 °F 79% 29.35 in 10.0 mi Calm Calm - N/A   Mostly Cloudy
12:53 PM 30.9 °F 25.2 °F 24.1 °F 76% 29.35 in 10.0 mi Variable 5.8 mph - N/A   Mostly Cloudy
1:53 PM 32.0 °F - 24.1 °F 73% 29.35 in 10.0 mi Calm Calm - N/A   Mostly Cloudy
2:53 PM 33.1 °F 28.7 °F 19.0 °F 56% 29.36 in 10.0 mi NE 4.6 mph - N/A   Scattered Clouds
3:53 PM 32.0 °F 28.7 °F 19.9 °F 61% 29.35 in 10.0 mi East 3.5 mph - N/A   Partly Cloudy
4:53 PM 33.1 °F 23.9 °F 12.9 °F 43% 29.37 in 10.0 mi ENE 12.7 mph 19.6 mph N/A   Scattered Clouds
5:53 PM 32.0 °F - 15.1 °F 50% 29.37 in 10.0 mi Calm Calm - N/A   Scattered Clouds
6:53 PM 33.1 °F 28.7 °F 16.0 °F 50% 29.37 in 10.0 mi North 4.6 mph - N/A   Scattered Clouds
7:53 PM 33.1 °F 30.0 °F 17.1 °F 52% 29.38 in 10.0 mi North 3.5 mph - N/A   Mostly Cloudy
8:53 PM 32.0 °F 24.8 °F 17.1 °F 54% 29.37 in 10.0 mi NE 8.1 mph - N/A   Mostly Cloudy
9:53 PM 28.9 °F 19.2 °F 23.0 °F 78% 29.38 in 3.0 mi ENE 11.5 mph 20.7 mph 0.00 in Snow Light Snow
10:02 PM 28.4 °F 20.4 °F 24.8 °F 86% 29.37 in 2.5 mi NNE 8.1 mph 18.4 mph 0.00 in Snow Light Snow
10:19 PM 30.2 °F 21.3 °F 26.6 °F 86% 29.37 in 3.0 mi NNE 10.4 mph 16.1 mph 0.00 in Snow Light Snow
10:53 PM 28.9 °F 22.8 °F 26.1 °F 89% 29.37 in 9.0 mi NW 5.8 mph - 0.00 in   Overcast
11:36 PM 30.2 °F 25.4 °F 26.6 °F 86% 29.36 in 2.5 mi NNE 4.6 mph - 0.01 in Snow Light Snow
11:44 PM 30.2 °F - 26.6 °F 86% 29.37 in 0.8 mi Calm Calm - 0.02 in Snow Light Snow
11:53 PM 30.0 °F - 27.0 °F 88% 29.37 in 0.5 mi Calm Calm - 0.03 in Fog , Snow Snow